Location: Neumark
(53.2815°N, 14.7811°E)
Time: 08:39:47
(UTC+00:00)

Daily predictions for brighter satellites

Satellite Brightness Start Highest point End
(mag) Time Altitude Azimuth Time Altitude Azimuth Time Altitude Azimuth
Cosmos 1726 2.1 18:01:00 10° SSW 18:04:31 83° WNW 18:08:04 10° N
Meteor 2-10 4.1 18:01:50 10° SSW 18:06:55 86° WNW 18:12:10 10° NNE
Cosmos 1975 4.3 18:03:15 10° SSW 18:07:04 44° WNW 18:10:57 10° N
Okean-O 3.2 18:05:00 10° SE 18:09:06 39° ENE 18:13:15 10° N
Cosmos 1869 Rocket 4.2 18:09:01 10° SSW 18:13:18 62° WNW 18:17:40 10° N
Cosmos 2263 Rocket 3.4 18:09:40 10° SE 18:13:29 19° E 18:17:20 10° ENE
ATLAS CENTAUR R/B 4.4 17:57:07 10° SW 18:13:47 81° SSE 18:21:27 10° ENE
Cosmos 2123 Rocket 4.3 18:07:43 10° SSW 18:14:02 77° WNW 18:20:26 10° N
Cosmos 1464 Rocket 4.5 18:09:41 10° N 18:15:44 43° ENE 18:21:47 10° SE
ATLAS 2AS CENTAUR R/B 4.2 18:15:22 10° SE 18:19:30 16° ESE 18:23:33 10° ENE
Cosmos 1733 4.5 18:16:40 10° SSW 18:20:18 46° WNW 18:23:57 10° N
Cosmos 2237 Rocket 3.9 18:17:35 10° NW 18:22:38 35° WSW 18:27:38 10° S
Landsat 7 3.8 18:17:58 10° SSE 18:22:41 76° ENE 18:27:25 10° NNW
Cosmos 1447 Rocket 4.5 18:16:59 10° S 18:23:03 63° E 18:29:08 10° NNE
Cosmos 1110 Rocket 4.4 18:20:44 10° SW 18:25:55 70° WNW 18:31:06 10° NNE
Cosmos 1766 3.1 18:23:46 10° S 18:27:33 78° E 18:31:23 10° NNE
Cosmos 1486 Rocket 4.1 18:24:30 10° NNW 18:29:49 63° ENE 18:35:03 10° SE
NOSS 2-1 (C) 3.9 18:28:18 10° S 18:30:55 23° SE 18:33:27 10° ENE
Cosmos 968 Rocket 4.4 18:26:13 10° NW 18:31:11 49° WSW 18:36:05 10° S
CZ-4C R/B 3.0 18:25:00 10° NW 18:31:54 87° SW 18:40:18 10° SE
GEOS 3 Rocket 4.3 18:27:03 10° ENE 18:31:57 34° ESE 18:36:48 10° S
SL-4 R/B 2.5 18:27:59 10° WSW 18:32:33 53° SSE 18:36:54 11° E
IGS 5A 4.3 18:28:48 10° S 18:32:50 54° W 18:36:56 10° NNW
Cosmos 1331 Rocket 4.5 18:29:48 10° SW 18:34:55 65° WNW 18:40:07 10° NNE
NOSS 2-1 (D) 3.8 18:32:52 10° S 18:35:42 26° SE 18:38:26 10° ENE
USA 267 3.8 18:29:39 10° SE 18:36:04 55° SW 18:42:29 10° WNW
ISS -1.7 18:33:46 10° W 18:36:20 20° SSW 18:38:53 10° SSE
NOSS 3-4 (A) 3.3 18:31:19 10° SSW 18:36:54 65° SE 18:43:05 10° NE
NOSS 3-4 (C) 3.3 18:31:26 10° SSW 18:37:00 65° SE 18:43:11 10° NE
ATLAS 3B R/B 3.5 18:31:30 10° NW 18:38:40 48° NNE 18:45:34 12° E
Terra 3.7 18:36:38 10° E 18:39:14 15° NE 18:41:56 10° NNE
Cosmos 1867 4.4 18:34:02 10° WSW 18:39:22 54° NW 18:44:46 10° NE
CSL-04 Debris 4.3 18:34:44 10° SSE 18:40:10 83° WSW 18:45:42 10° NNW
ERS-1 Rocket 4.5 18:40:17 12° E 18:43:15 20° NE 18:46:51 10° N
Cosmos 1674 Rocket 3.6 18:40:20 10° NNW 18:44:41 79° W 18:48:59 10° S
Meteor 2-5 Rocket 3.8 18:39:08 10° NNW 18:45:02 77° ENE 18:50:58 10° SSE
Meteor 2-13 Rocket 4.4 18:39:14 10° S 18:45:24 82° E 18:51:35 10° NNE
Cosmos 1733 Rocket 3.3 18:43:04 10° SSW 18:47:23 74° WNW 18:51:45 10° N
USA 186 2.6 18:44:38 10° S 18:47:42 51° W 18:50:50 10° NNW
Cosmos 1513 Rocket 4.4 18:42:09 10° N 18:48:18 77° E 18:54:28 10° SSE
IRS-1C Rocket 4.1 18:43:49 10° SSE 18:49:05 74° ENE 18:54:23 10° NNW
Cosmos 1378 Rocket 4.0 18:46:13 10° NNW 18:50:39 67° W 18:55:02 10° S
CARTOSAT-1 4.1 18:47:37 15° SE 18:50:51 41° ENE 18:54:55 10° N
Cosmos 1025 Rocket 3.6 18:47:34 10° N 18:51:38 38° ENE 18:54:27 17° SE
Cosmos 1943 3.4 18:47:41 10° NNW 18:53:16 58° NE 18:57:34 17° SE
Meteor 1-12 Rocket 4.2 18:50:37 10° S 18:56:20 75° E 19:02:00 10° NNE
Cosmos 1603 4.0 18:53:03 10° NNW 18:58:40 53° NE 19:02:38 19° ESE
Cosmos 1271 Rocket 3.2 18:55:19 10° SSW 18:59:00 60° WNW 19:02:40 10° N
ADEOS Rocket 4.2 18:56:48 16° ESE 19:01:31 35° NE 19:08:05 10° N
Cosmos 2297 Rocket 3.2 18:59:24 10° SW 19:04:54 51° NW 19:10:26 10° NNE
SJ 16-02 1.4 19:02:34 10° NNW 19:06:59 78° WSW 19:10:43 14° SSE
Helios 1B 4.5 19:03:52 10° NNE 19:08:14 78° ESE 19:12:34 10° SSW
SPOT 1/Viking Rocket 3.6 19:05:07 10° SSE 19:10:20 82° WSW 19:15:36 10° NNW
Ariane Rocket 3.4 19:08:35 21° SE 19:11:35 45° ENE 19:16:23 10° N
MetOp-A 4.1 19:08:18 18° SE 19:12:06 60° ENE 19:16:57 10° N
Lacrosse 5 rocket 1.9 19:10:58 10° W 19:15:08 55° NNW 19:18:25 14° ENE
BlueWalker 3 2.0 19:11:53 10° WSW 19:15:44 60° SSE 19:17:41 27° E
Cosmos 2082 3.6 19:11:10 10° SSW 19:16:45 71° ESE 19:22:22 10° NE
Meteor 1-22 Rocket 4.3 19:11:19 10° S 19:17:25 84° E 19:23:24 10° NNE
Resurs 01 Rocket 1.7 19:13:44 12° S 19:17:53 78° WSW 19:22:20 10° NNW
Cosmos 1354 Rocket 4.0 19:13:00 10° NNW 19:18:19 76° ENE 19:21:43 23° SE
Cosmos 1340 Rocket 2.6 19:14:40 10° N 19:18:36 78° ENE 19:20:48 24° SSE
CZ-4 R/B 4.2 19:17:08 10° SW 19:19:39 16° W 19:22:13 10° NW
MOS 1 4.3 19:16:26 13° SSE 19:21:31 87° ENE 19:27:16 10° NNW
Spot 2 Rocket 4.3 19:19:43 25° ESE 19:21:55 36° ENE 19:26:32 10° N
Cosmos 2227 Rocket 2.9 19:16:23 10° SW 19:21:58 57° NW 19:27:35 10° NNE
RESURS DK-1 2.8 19:18:11 10° S 19:21:58 37° ESE 19:25:48 10° NE
Cosmos 2034 Rocket 3.9 19:16:06 10° N 19:22:19 80° ENE 19:27:40 14° SSE
Cosmos 1908 Rocket 3.6 19:19:39 10° S 19:24:06 86° W 19:28:35 10° N
IRS-1A Rocket 4.3 19:19:56 17° SSE 19:24:35 80° ENE 19:30:24 10° NNW
Cosmos 2219 3.6 19:20:21 10° SW 19:25:56 68° NW 19:31:35 10° NNE
MetOp-B 4.1 19:22:33 22° SSE 19:26:03 68° ENE 19:31:24 10° NNW
Cosmos 1470 3.4 19:22:38 10° SSW 19:26:28 56° WNW 19:30:19 10° N
Meteor 1-24 Rocket 4.4 19:22:13 10° NNW 19:28:07 62° W 19:34:04 10° S
NOSS 2-1 (E) 2.5 19:25:54 10° SW 19:29:04 71° SE 19:31:07 20° NE
H-2A R/B 2.8 19:28:50 32° SE 19:30:40 56° ENE 19:35:01 10° N
Cosmos 1908 3.0 19:28:52 18° S 19:31:31 74° E 19:35:16 10° NNE
SL-16 R/B 4.0 19:33:14 10° NW 19:38:01 28° WSW 19:42:45 10° SSW
NOSS 3-1 (C) 4.2 19:31:30 10° NW 19:38:11 59° NNE 19:43:08 24° ESE
USA 281 4.3 19:33:27 10° NNE 19:39:39 46° NW 19:45:49 10° WSW
Cosmos 1975 Rocket 3.0 19:35:18 10° NNW 19:39:47 89° W 19:42:06 29° S
Okean O Rocket 4.4 19:37:30 10° SW 19:40:05 15° W 19:42:41 10° NW
Tsikada Rocket 4.0 19:36:09 19° SSE 19:40:33 56° E 19:46:34 10° NNE
Geosat 4.1 19:37:48 26° SSE 19:40:40 73° WSW 19:45:44 10° NW
USA 215 3.3 19:35:06 10° ENE 19:41:41 83° NNW 19:48:15 10° WSW
Cosmos 2344 4.1 19:34:35 10° NW 19:42:38 69° NE 19:49:21 25° ESE
Cosmos 1300 Rocket 3.6 19:42:32 39° SSE 19:43:51 56° E 19:48:06 10° NNE
Okean-O 4.3 19:41:44 10° SSW 19:45:39 31° W 19:49:36 10° NNW
Cosmos 1536 Rocket 4.2 19:42:19 10° N 19:46:24 36° ENE 19:46:51 35° E
NOSS 2-2 (C) 4.4 19:42:36 10° NW 19:46:34 43° NNE 19:48:38 29° E
Cosmos 1825 4.0 19:44:28 10° NNE 19:46:25 17° NE 19:46:25 17° NE
Aureole 1 Rocket 2.5 19:43:50 10° NNW 19:48:04 89° ENE 19:48:42 59° SSE
Cosmos 1758 3.2 19:45:47 21° SSW 19:48:19 84° W 19:52:16 10° N
SPOT 5 2.9 19:47:37 38° SE 19:49:26 69° ENE 19:54:30 10° N
Meteor 1-21 Rocket 4.4 19:43:40 10° N 19:49:35 66° ENE 19:52:10 34° SE
Cosmos 1408 3.3 19:47:05 10° N 19:49:45 36° NE 19:49:45 36° NE
USA 245 3.5 19:50:00 49° SE 19:51:01 72° ENE 19:55:54 10° NNW
NOSS 2-3 (C) 4.5 19:45:33 10° NW 19:51:08 84° NE 19:54:34 33° SE
Cosmos 1892 3.9 19:49:04 10° N 19:51:45 27° NE 19:51:45 27° NE
deb Chang Zheng 4 3.6 19:53:39 46° ENE 19:53:47 46° ENE 19:57:29 10° N
Cosmos 2279 Rocket 4.2 19:47:45 10° N 19:53:50 51° ENE 19:55:59 36° ESE
NOSS 2-3 (D) 4.5 19:48:18 10° NW 19:53:52 83° NE 19:57:08 34° SE
BREEZE-M DEB (TANK) 3.8 19:49:26 10° WNW 19:54:54 41° SSW 19:56:12 32° S
Cosmos 2263 Rocket 2.1 19:51:07 10° SSW 19:56:41 88° WNW 20:02:18 10° NNE
Cosmos 1782 Rocket 3.7 19:55:04 15° SSW 19:58:42 73° WNW 20:03:07 10° N
Meteor 2-19 Rocket 4.5 19:55:50 10° SSW 20:01:57 80° WNW 20:08:06 10° N
Cosmos 1844 Rocket 3.9 20:04:32 24° ENE 20:04:32 24° ENE 20:07:29 10° NE
Landsat 5 4.4 19:59:42 10° N 20:03:29 45° WNW 20:07:20 10° SW
Cosmos 2084 3.0 20:01:05 10° NW 20:04:55 87° SW 20:05:07 80° SE
Cosmos 1703 3.8 20:01:22 10° NNW 20:05:08 53° W 20:06:14 38° SSW
Meteor 2-10 Rocket 3.4 20:05:57 50° SE 20:06:50 58° E 20:11:45 10° NNE
Cosmos 1328 3.9 20:03:23 10° N 20:07:12 58° ENE 20:07:12 58° ENE
ATLAS 2AS CENTAUR R/B 2.9 20:01:41 10° SSW 20:09:06 57° SE 20:16:15 10° NE
NOSS 2-2 (D) 4.1 20:06:04 10° NW 20:10:13 56° NE 20:11:32 43° E
GEOS 3 Rocket 3.9 20:04:54 10° NE 20:10:17 71° NW 20:15:39 10° WSW
SL-4 R/B 2.1 20:07:05 10° W 20:11:45 73° S 20:12:09 68° SE
Cosmos 1953 2.5 20:16:13 57° NE 20:16:13 57° NE 20:19:39 10° NNE
ARIANE 5 R/B 3.5 20:16:10 34° ENE 20:16:10 34° ENE 20:20:02 10° N
Terra 1.7 20:15:23 61° SE 20:16:07 76° ENE 20:20:52 10° NNW
Spot 2 4.3 20:15:57 50° S 20:17:13 78° WSW 20:21:53 10° NNW
CZ-4C R/B 4.3 20:13:53 10° WNW 20:20:05 30° WSW 20:25:54 14° SSW
Sich 1 Rocket 3.8 20:20:30 57° ENE 20:20:30 57° ENE 20:24:33 10° NNE
NOSS 2-1 (C) 4.1 20:17:52 10° WSW 20:20:51 39° NNW 20:21:49 30° N
USA 229 DEB 4.5 20:14:19 10° NW 20:21:08 48° NNE 20:25:21 25° E
ERS-1 Rocket 2.9 20:20:15 53° S 20:21:28 84° WSW 20:26:32 10° NNW
Meteor 1-16 Rocket 4.1 20:22:23 33° SSW 20:25:01 89° W 20:30:31 10° NNE
NOSS 2-1 (D) 4.2 20:22:39 10° WSW 20:25:41 38° NNW 20:26:56 26° NNE
SPOT 3 Rocket 3.7 20:24:20 43° S 20:26:00 68° WSW 20:31:14 10° NNW
NOSS 3-4 (A) 4.4 20:22:28 10° W 20:28:04 46° NNW 20:34:23 10° NE
NOSS 3-4 (C) 4.4 20:22:34 10° W 20:28:11 47° NNW 20:34:29 10° NE
ATLAS CENTAUR R/B 3.8 20:16:47 10° W 20:29:03 67° N 20:33:04 23° ENE
ATLAS 3B R/B 2.9 20:22:29 10° NW 20:30:03 80° SW 20:32:49 44° SSE
Cosmos 2227 4.2 20:31:50 10° SSW 20:37:37 83° WNW 20:43:25 10° NNE
Cosmos 2151 Rocket 3.8 20:38:41 60° NE 20:38:41 60° NE 20:42:29 10° NNE
Aureole 3 Rocket 4.1 20:35:01 10° NNW 20:36:43 29° NNW 20:36:43 29° NNW
H-2A R/B 3.3 20:34:00 10° NNE 20:36:25 29° NE 20:36:25 29° NE
Cosmos 1633 4.3 20:37:32 10° N 20:39:05 24° N 20:39:05 24° N
Cosmos 1300 3.4 20:41:49 51° NW 20:41:49 51° NW 20:44:59 10° N
Cosmos 1634 Rocket 4.4 20:35:17 10° NNW 20:41:30 59° W 20:44:19 33° SSW
NOSS 2-2 (E) 3.9 20:38:20 10° NW 20:42:49 84° SW 20:43:15 75° SSE
SJ 16-02 4.1 20:43:16 10° WNW 20:44:40 11° W 20:46:03 10° WSW
Nadezhda 4 Rocket 4.4 20:46:33 44° E 20:46:33 44° E 20:52:05 10° NNE
ADEOS Rocket 3.5 20:43:44 39° S 20:46:29 70° WSW 20:53:56 10° NNW
NOSS 3-1 (A) 4.0 20:40:24 10° NW 20:47:20 72° NE 20:50:06 44° ESE
Timation 2 Rocket 4.0 20:41:56 10° SW 20:48:08 83° WNW 20:54:42 10° NNE
Meteor 1-11 4.1 20:44:02 10° NNW 20:49:44 89° WSW 20:50:27 70° S
Cosmos 372 Rocket 4.3 20:44:51 10° NNW 20:49:52 51° ENE 20:49:54 51° ENE
Ariane Rocket 4.3 20:48:45 25° SW 20:50:40 33° W 20:55:16 10° NNW
BlueWalker 3 3.5 20:50:22 10° W 20:52:26 30° W 20:52:26 30° W
Lacrosse 5 rocket 2.2 20:50:21 10° WNW 20:53:45 47° NNW 20:53:45 47° NNW
Cosmos 990 Rocket 4.0 20:49:23 10° NNW 20:54:37 69° WSW 20:54:55 67° SW
Resurs 01 Rocket 4.4 20:53:36 10° WSW 20:55:08 12° W 20:56:40 10° WNW
Okean 1 Rocket 4.2 20:57:33 35° NNE 20:57:33 35° NNE 21:00:13 10° NNE
Cosmos 1937 Rocket 3.6 20:51:00 10° NNW 20:56:11 63° ENE 20:56:11 63° ENE
RESURS DK-1 3.9 20:56:07 10° WSW 20:59:55 35° NW 21:03:45 10° NNE
Cosmos 1833 Rocket 3.2 20:55:07 10° NNW 21:00:35 48° NE 21:01:05 46° ENE
Spot 2 Rocket 4.3 20:59:52 39° SW 21:00:49 43° W 21:05:42 10° NNW
Okean 2 Rocket 3.5 21:03:07 60° NW 21:03:07 60° NW 21:07:01 10° N
Cosmos 2082 Rocket 3.6 21:00:50 10° NNW 21:05:39 28° NE 21:07:00 25° ENE
Cosmos 1898 Rocket 3.4 21:01:10 10° NNW 21:06:27 85° WNW 21:06:27 85° WNW
Cosmos 371 Rocket 3.6 21:02:01 10° NNW 21:06:19 62° NNE 21:06:19 62° NNE
ASTEX 1 3.5 21:08:45 72° N 21:08:45 72° N 21:13:09 10° N
Cosmos 1825 4.1 21:18:50 10° NNW 21:20:47 28° NW 21:20:47 28° NW
Cosmos 304 Rocket 4.3 21:17:40 10° NNW 21:21:36 54° N 21:21:36 54° N
USA 215 3.5 21:20:12 22° ENE 21:24:33 65° N 21:31:01 10° W
NOSS 3-1 (C) 4.2 21:22:17 10° NW 21:29:21 59° SW 21:30:31 54° SSW
Cosmos 2292 Rocket 4.4 21:33:21 77° SW 21:33:48 82° WNW 21:41:12 10° N
Cosmos 2026 Rocket 4.4 21:37:30 52° ENE 21:37:30 52° ENE 21:43:04 10° NNE
Cosmos 1844 3.8 21:37:38 77° N 21:37:38 77° N 21:43:05 10° NNE
Cosmos 2263 Rocket 4.2 21:36:46 10° W 21:41:23 26° NW 21:46:01 10° NNE
Cosmos 1844 Rocket 2.9 21:46:07 63° WNW 21:46:18 63° NW 21:51:52 10° NNE
ARIANE 5 R/B 4.2 21:53:40 30° WNW 21:53:40 30° WNW 21:56:33 10° NNW
Terra 3.9 21:54:07 18° W 21:54:19 18° W 21:57:32 10° NW
COSMOS 2406 3.7 21:49:28 10° NNW 21:54:46 51° NE 21:54:46 51° NE
ATLAS 2AS CENTAUR R/B 3.3 21:52:45 10° WSW 22:00:13 58° NNW 22:07:19 10° NE
Cosmos 1763 Rocket 4.3 22:07:12 46° NW 22:07:12 46° NW 22:11:41 10° NNE
Cosmos 1125 Rocket 4.4 22:02:24 10° NNW 22:06:34 42° NNE 22:06:34 42° NNE
ALOS 2 4.1 22:09:59 34° N 22:09:59 34° N 22:12:31 10° NNW
Cosmos 1238 Rocket 4.2 22:12:39 56° NNE 22:12:39 56° NNE 22:16:52 10° NNE
USA 229 DEB 3.8 22:05:24 10° NW 22:12:40 79° SW 22:12:46 78° SW
USA 229 3.8 22:05:30 10° NW 22:12:46 79° SW 22:12:53 79° SW
H-2A R/B 4.0 22:10:15 10° N 22:13:23 25° NW 22:13:23 25° NW
ATLAS 3B R/B 4.2 22:14:00 10° WNW 22:19:57 25° WSW 22:20:04 25° WSW
Cosmos 1553 Rocket 4.1 22:22:38 10° NNW 22:28:17 73° NNW 22:28:17 73° NNW
Lacrosse 4 Rocket 4.0 22:41:25 15° NE 22:41:25 15° NE 22:42:13 10° NE
ATLAS CENTAUR R/B 3.4 22:35:39 10° WNW 22:42:15 50° WNW 22:42:15 50° WNW
Cosmos 1833 Rocket 4.0 22:39:13 10° NW 22:42:47 32° WNW 22:42:47 32° WNW
Cosmos 1943 Rocket 4.0 22:50:56 22° ENE 22:50:56 22° ENE 22:53:26 10° NE
Cosmos 2082 Rocket 2.9 22:44:45 10° NNW 22:48:51 50° NW 22:48:51 50° NW
Meteor 2-3 Rocket 4.3 22:49:38 10° N 22:54:16 54° NNE 22:54:16 54° NNE
Cosmos 2278 Rocket 3.0 23:07:04 47° NE 23:07:04 47° NE 23:11:03 10° NNE
USA 215 3.2 23:07:29 83° N 23:07:29 83° N 23:13:58 10° WNW
Cosmos 1655 Rocket 4.2 23:14:23 63° NE 23:14:23 63° NE 23:19:49 10° NNE
ATLAS 5 CENTAUR R/B 4.3 23:24:34 11° ENE 23:24:34 11° ENE 23:24:43 10° ENE
ATLAS 2AS CENTAUR R/B 4.1 23:45:42 10° WNW 23:52:31 37° N 23:58:58 10° ENE
Cosmos 1867 4.2 23:48:36 10° NW 23:53:53 53° NNE 23:53:53 53° NNE
